Date String (YYYY-MM-DD hh:mm:ss) UTC,Instrument flags,absolute air pressure of the measurement (hPa),sample flow rate (lpm),inlet stack bypass flow (lpm),air temperature of the measurement (°C),ambient temperature measured by the external sensor (°C),aerosol sample conditioner tube jacket temperature (°C),OPC LED temperature (°C),internal box temperature (°C),relative humidity of the measurement (%),span deviation,mass concentration of particles derived from Lorenz-Mie calculation of OPC scattering (μg/m³),mass concentration of particles derived from Lorenz-Mie calculation of OPC scattering (μg/m³),mass concentration of particles derived from Lorenz-Mie calculation of OPC scattering (μg/m³)
DateTimeUTC,F1_M11,P_M11,Q1_M11,Q2_M11,T1_M11,T2_M11,T3_M11,T4_M11,T5_M11,U1_M11,ZSPAN_M11,X0_M11,X2_M11,X1_M11
2023-11-28 20:00:00,SystemResetWarning,0832.7,4.99,000.00,025.0,024.3,000.0,033.1,026.4,9.0,0000.0,0007.95,0003.49,0003.22
2023-11-28 20:01:00,SystemResetWarning,0832.7,5.00,000.00,025.0,024.3,000.0,033.1,026.5,9.1,0000.0,0008.43,0003.46,0003.22
2023-11-28 20:02:00,SystemResetWarning,0832.7,5.00,000.00,025.1,024.4,000.0,033.1,026.5,9.6,0000.0,0008.83,0003.48,0003.24
2023-11-28 20:03:00,SystemResetWarning,0832.7,4.99,000.00,025.1,024.4,000.0,033.1,026.5,9.7,0000.0,0008.93,0003.52,0003.25
2023-11-28 20:04:00,SystemResetWarning,0832.7,5.00,000.00,025.1,024.4,000.0,033.1,026.5,9.7,0000.0,0008.32,0003.52,0003.26
2023-11-28 20:05:00,SystemResetWarning,0832.6,5.00,000.00,025.1,024.4,000.0,033.2,026.5,9.7,0000.0,0008.27,0003.52,0003.28
2023-11-28 20:06:00,SystemResetWarning,0832.6,5.00,000.00,025.1,024.4,000.0,033.2,026.5,9.3,0000.0,0008.30,0003.53,0003.29
2023-11-28 20:07:00,SystemResetWarning,0832.6,5.01,000.00,025.1,024.4,000.0,033.2,026.5,9.4,0000.0,0008.21,0003.58,0003.32
2023-11-28 20:08:00,SystemResetWarning,0832.7,5.00,000.00,025.1,024.4,000.0,033.2,026.5,9.3,0000.0,0008.17,0003.65,0003.36
2023-11-28 20:09:00,SystemResetWarning,0832.6,5.00,000.00,025.2,024.4,000.0,033.2,026.6,9.1,0000.0,0008.25,0003.70,0003.39
2023-11-28 20:10:00,SystemResetWarning,0832.6,5.00,000.00,025.2,024.4,000.0,033.2,026.6,9.2,0000.0,0007.67,0003.72,0003.42
2023-11-28 20:11:00,SystemResetWarning,0832.6,5.00,000.00,025.2,024.4,000.0,033.2,026.6,9.3,0000.0,0007.57,0003.75,0003.45
2023-11-28 20:12:00,SystemResetWarning,0832.6,5.00,000.00,025.2,024.4,000.0,033.3,026.6,9.3,0000.0,0006.88,0003.77,0003.50
2023-11-28 20:13:00,SystemResetWarning,0832.6,5.00,000.00,025.2,024.4,000.0,033.3,026.6,9.5,0000.0,0006.09,0003.79,0003.53
2023-11-28 20:14:00,SystemResetWarning,0832.7,5.00,000.00,025.2,024.4,000.0,033.3,026.6,9.6,0000.0,0006.06,0003.80,0003.57
2023-11-28 20:15:00,SystemResetWarning,0832.6,5.00,000.00,025.2,024.4,000.0,033.3,026.6,9.3,0000.0,0006.27,0003.84,0003.60
2023-11-28 20:16:00,SystemResetWarning,0832.6,5.00,000.00,025.2,024.4,000.0,033.3,026.6,9.4,0000.0,0006.52,0003.89,0003.64
2023-11-28 20:17:00,SystemResetWarning,0832.6,4.99,000.00,025.2,024.4,000.0,033.3,026.6,9.2,0000.0,0006.73,0003.93,0003.69
2023-11-28 20:18:00,SystemResetWarning,0832.6,5.00,000.00,025.2,024.4,000.0,033.3,026.6,9.3,0000.0,0007.24,0003.99,0003.74
2023-11-28 20:19:00,SystemResetWarning,0832.5,5.00,000.00,025.2,024.4,000.0,033.3,026.6,9.3,0000.0,0007.20,0004.01,0003.76
2023-11-28 20:20:00,SystemResetWarning,0832.5,5.00,000.00,025.3,024.3,000.0,033.4,026.6,9.1,0000.0,0007.14,0004.00,0003.77
2023-11-28 20:21:00,SystemResetWarning,0832.5,5.01,000.00,025.3,024.3,000.0,033.4,026.6,9.1,0000.0,0007.07,0004.03,0003.77
2023-11-28 20:22:00,SystemResetWarning,0832.5,5.00,000.00,025.3,024.3,000.0,033.4,026.6,8.8,0000.0,0007.18,0004.06,0003.78
2023-11-28 20:23:00,SystemResetWarning,0832.5,5.01,000.00,025.3,024.3,000.0,033.4,026.6,9.1,0000.0,0007.23,0004.06,0003.77
2023-11-28 20:24:00,SystemResetWarning,0832.6,5.00,000.00,025.3,024.4,000.0,033.4,026.6,9.0,0000.0,0007.29,0004.06,0003.77
2023-11-28 20:25:00,SystemResetWarning,0832.6,5.00,000.00,025.3,024.4,000.0,033.4,026.6,8.9,0000.0,0007.32,0004.06,0003.77
2023-11-28 20:26:00,SystemResetWarning,0832.5,5.00,000.00,025.3,024.4,000.0,033.4,026.6,8.9,0000.0,0007.35,0004.09,0003.77
2023-11-28 20:27:00,SystemResetWarning,0832.6,4.99,000.00,025.3,024.4,000.0,033.4,026.6,9.1,0000.0,0007.32,0004.09,0003.76
2023-11-28 20:28:00,SystemResetWarning,0832.5,5.00,000.00,025.3,024.4,000.0,033.4,026.7,8.9,0000.0,0007.35,0004.10,0003.76
2023-11-28 20:29:00,SystemResetWarning,0832.5,5.00,000.00,025.3,024.4,000.0,033.4,026.7,9.2,0000.0,0006.53,0004.07,0003.74
2023-11-28 20:30:00,SystemResetWarning,0832.6,5.01,000.00,025.3,024.4,000.0,033.5,026.7,9.0,0000.0,0006.35,0004.04,0003.73
2023-11-28 20:31:00,SystemResetWarning,0832.6,5.01,000.00,025.3,024.4,000.0,033.5,026.7,9.1,0000.0,0006.34,0004.03,0003.73
2023-11-28 20:32:00,SystemResetWarning,0832.5,5.00,000.00,025.4,024.5,000.0,033.5,026.7,9.3,0000.0,0006.26,0004.01,0003.72
2023-11-28 20:33:00,SystemResetWarning,0832.6,5.00,000.00,025.4,024.5,000.0,033.5,026.8,9.0,0000.0,0006.18,0003.98,0003.72
2023-11-28 20:34:00,SystemResetWarning,0832.5,5.00,000.00,025.4,024.5,000.0,033.5,026.8,9.2,0000.0,0006.24,0004.00,0003.73
2023-11-28 20:35:00,SystemResetWarning,0832.5,5.00,000.00,025.4,024.5,000.0,033.5,026.8,9.3,0000.0,0006.18,0004.01,0003.73
2023-11-28 20:36:00,SystemResetWarning,0832.6,5.00,000.00,025.4,024.6,000.0,033.5,026.8,9.4,0000.0,0006.34,0004.05,0003.76
2023-11-28 20:37:00,SystemResetWarning,0832.5,5.00,000.00,025.4,024.6,000.0,033.5,026.8,9.4,0000.0,0006.30,0004.05,0003.78
2023-11-28 20:38:00,SystemResetWarning,0832.5,5.00,000.00,025.4,024.6,000.0,033.6,026.8,9.2,0000.0,0006.17,0004.04,0003.79
2023-11-28 20:39:00,SystemResetWarning,0832.5,5.00,000.00,025.5,024.6,000.0,033.6,026.9,8.9,0000.0,0006.07,0004.04,0003.81
2023-11-28 20:40:00,SystemResetWarning,0832.5,5.00,000.00,025.5,024.6,000.0,033.6,026.8,9.0,0000.0,0007.25,0004.05,0003.83
2023-11-28 20:41:00,SystemResetWarning,0832.5,5.00,000.00,025.5,024.6,000.0,033.6,026.9,8.9,0000.0,0007.29,0004.07,0003.83
2023-11-28 20:42:00,SystemResetWarning,0832.6,5.01,000.00,025.5,024.6,000.0,033.6,026.9,8.4,0000.0,0007.30,0004.07,0003.83
2023-11-28 20:43:00,SystemResetWarning,0832.6,5.00,000.00,025.5,024.6,000.0,033.6,026.9,8.1,0000.0,0007.49,0004.07,0003.83
2023-11-28 20:44:00,SystemResetWarning,0832.6,5.01,000.00,025.5,024.7,000.0,033.6,026.9,8.1,0000.0,0007.91,0004.07,0003.82
2023-11-28 20:45:00,SystemResetWarning,0832.6,5.01,000.00,025.6,024.7,000.0,033.6,026.9,8.1,0000.0,0008.17,0004.07,0003.81
2023-11-28 20:46:00,SystemResetWarning,0832.5,5.00,000.00,025.6,024.7,000.0,033.7,027.0,8.2,0000.0,0008.28,0004.06,0003.81
2023-11-28 20:47:00,SystemResetWarning,0832.6,5.00,000.00,025.6,024.7,000.0,033.7,027.0,8.5,0000.0,0008.73,0004.03,0003.78
2023-11-28 20:48:00,SystemResetWarning,0832.7,5.00,000.00,025.6,024.7,000.0,033.7,027.0,8.7,0000.0,0008.59,0003.97,0003.75
2023-11-28 20:49:00,SystemResetWarning,0832.6,4.99,000.00,025.6,024.8,000.0,033.7,027.0,8.7,0000.0,0008.93,0003.93,0003.70
2023-11-28 20:50:00,SystemResetWarning,0832.7,5.00,000.00,025.6,024.8,000.0,033.7,027.0,9.3,0000.0,0009.41,0003.89,0003.66
2023-11-28 20:51:00,SystemResetWarning,0832.7,5.00,000.00,025.6,024.8,000.0,033.7,027.0,9.2,0000.0,0008.74,0003.85,0003.63
2023-11-28 20:52:00,SystemResetWarning,0832.6,5.00,000.00,025.7,024.8,000.0,033.7,027.0,8.6,0000.0,0008.92,0003.84,0003.61
2023-11-28 20:53:00,SystemResetWarning,0832.7,5.00,000.00,025.7,024.8,000.0,033.8,027.1,8.4,0000.0,0009.18,0003.83,0003.60
2023-11-28 20:54:00,SystemResetWarning,0832.6,5.00,000.00,025.7,024.8,000.0,033.8,027.1,8.5,0000.0,0009.04,0003.83,0003.60
2023-11-28 20:55:00,SystemResetWarning,0832.6,5.00,000.00,025.7,024.8,000.0,033.8,027.1,8.4,0000.0,0008.62,0003.84,0003.60
2023-11-28 20:56:00,SystemResetWarning,0832.7,5.00,000.00,025.7,024.8,000.0,033.8,027.1,8.4,0000.0,0008.55,0003.87,0003.62
2023-11-28 20:57:00,SystemResetWarning,0832.6,4.99,000.00,025.7,024.8,000.0,033.8,027.1,8.5,0000.0,0008.54,0003.91,0003.64
2023-11-28 20:58:00,SystemResetWarning,0832.6,5.00,000.00,025.7,024.8,000.0,033.8,027.1,8.9,0000.0,0007.98,0003.89,0003.63
2023-11-28 20:59:00,SystemResetWarning,0832.7,5.00,000.00,025.7,024.9,000.0,033.8,027.1,9.1,0000.0,0008.03,0003.91,0003.63
